This is the latest recevied weather packets stored in our database for station/object KF5WCW-1. If no packets are shown the sender has not sent any weather packets the latest 1 day(s).
| Time | Temp. | Humidity | Pressure | Rain* | Wind** | Luminosity | Snow |
|---|---|---|---|---|---|---|---|
| 1778117466 | 3.33° C | 74% | 0 hPa | 0 mm | - | - | - |
| 1778117166 | 3.33° C | 71% | 0 hPa | 0 mm | - | - | - |
| 1778116866 | 3.33° C | 70% | 0 hPa | 0 mm | - | - | - |
| 1778116266 | 3.89° C | 70% | 0 hPa | 0 mm | - | - | - |
| 1778115966 | 3.33° C | 68% | 0 hPa | 0 mm | - | - | - |
| 1778115366 | 3.89° C | 68% | 0 hPa | 0 mm | - | - | - |
| 1778115066 | 3.89° C | 67% | 0 hPa | 0 mm | - | - | - |
| 1778114766 | 3.89° C | 68% | 0 hPa | 0 mm | - | - | - |
| 1778113567 | 3.89° C | 68% | 0 hPa | 0 mm | - | - | - |
| 1778113266 | 3.89° C | 69% | 0 hPa | 0 mm | - | - | - |
| 1778107567 | 3.33° C | 75% | 0 hPa | 0 mm | - | - | - |
| 1778106967 | 2.78° C | 77% | 0 hPa | 0 mm | - | - | - |
| 1778106667 | 3.33° C | 78% | 0 hPa | 0 mm | - | - | - |
| 1778106367 | 2.78° C | 78% | 0 hPa | 0 mm | - | - | - |
| 1778106067 | 2.78° C | 81% | 0 hPa | 0 mm | - | - | - |
| 1778105767 | 2.78° C | 84% | 0 hPa | 0 mm | - | - | - |
| 1778105467 | 2.78° C | 85% | 0 hPa | 0 mm | - | - | - |
| 1778105167 | 2.22° C | 84% | 0 hPa | 0 mm | - | - | - |
| 1778104867 | 2.78° C | 85% | 0 hPa | 0 mm | - | - | - |
| 1778104567 | 2.78° C | 84% | 0 hPa | 0 mm | - | - | - |
| 1778104267 | 2.78° C | 82% | 0 hPa | 0 mm | - | - | - |
| 1778103967 | 2.78° C | 82% | 0 hPa | 0 mm | - | - | - |
| 1778103667 | 2.78° C | 82% | 0 hPa | 0 mm | - | - | - |
| 1778103367 | 2.78° C | 82% | 0 hPa | 0 mm | - | - | - |
| 1778102767 | 2.78° C | 83% | 0 hPa | 0 mm | - | - | - |
* Rain latest hour (hover to see other rain measurements)
** Current wind speed in m/s (hover to see current wind gust speed)